This is the latest recevied weather packets stored in our database for station/object OE6PLD-13. If no packets are shown the sender has not sent any weather packets the latest 10 day(s).
| Time | Temp. | Humidity | Pressure | Rain* | Wind** | Luminosity | Snow |
|---|---|---|---|---|---|---|---|
| 1778260950 | 20° C | 53% | 1011.9 hPa | 0.76 mm | - | 28 W/m² | - |
| 1778260766 | 20° C | 53% | 1011.8 hPa | 0.76 mm | - | 31 W/m² | - |
| 1778260583 | 20.56° C | 52% | 1012 hPa | 0.76 mm | - | 33 W/m² | - |
| 1778260400 | 20.56° C | 51% | 1011.9 hPa | 0.76 mm | - | 37 W/m² | - |
| 1778260216 | 20.56° C | 50% | 1011.6 hPa | 0.76 mm | - | 40 W/m² | - |
| 1778260033 | 20.56° C | 49% | 1011.8 hPa | 0.76 mm | - | 44 W/m² | - |
| 1778259849 | 21.11° C | 48% | 1011.8 hPa | 0.76 mm | - | 47 W/m² | - |
| 1778259666 | 21.11° C | 49% | 1011.8 hPa | 0.76 mm | - | 51 W/m² | - |
| 1778259483 | 21.11° C | 49% | 1011.6 hPa | 0.76 mm | - | 54 W/m² | - |
| 1778259299 | 21.11° C | 49% | 1011.6 hPa | 0.76 mm | - | 56 W/m² | - |
| 1778259116 | 21.11° C | 49% | 1011.7 hPa | 0.76 mm | - | 56 W/m² | - |
| 1778258932 | 21.11° C | 49% | 1011.7 hPa | 0.76 mm | - | 59 W/m² | - |
| 1778258749 | 21.67° C | 49% | 1011.8 hPa | 0.76 mm | - | 62 W/m² | - |
| 1778258566 | 21.67° C | 50% | 1011.5 hPa | 0.76 mm | - | 63 W/m² | - |
| 1778258382 | 22.22° C | 48% | 1011.8 hPa | 0.76 mm | - | 64 W/m² | - |
| 1778258199 | 22.22° C | 49% | 1011.7 hPa | 0.76 mm | - | 67 W/m² | - |
| 1778258016 | 22.22° C | 48% | 1011.7 hPa | 0.76 mm | - | 70 W/m² | - |
| 1778257832 | 21.67° C | 49% | 1011.6 hPa | 0.76 mm | - | 70 W/m² | - |
| 1778257649 | 21.67° C | 48% | 1011.6 hPa | 0.76 mm | - | 71 W/m² | - |
| 1778257466 | 21.67° C | 49% | 1011.6 hPa | 0.76 mm | - | 73 W/m² | - |
| 1778257282 | 21.67° C | 47% | 1011.5 hPa | 0.76 mm | - | 75 W/m² | - |
| 1778257099 | 21.67° C | 47% | 1011.5 hPa | 0.76 mm | - | 84 W/m² | - |
| 1778256916 | 21.67° C | 48% | 1011.6 hPa | 0.76 mm | - | 94 W/m² | - |
| 1778256732 | 22.22° C | 48% | 1011.4 hPa | 0.76 mm | - | 85 W/m² | - |
| 1778256549 | 22.22° C | 47% | 1011.5 hPa | 0.76 mm | - | 132 W/m² | - |
* Rain latest hour (hover to see other rain measurements)
** Current wind speed in m/s (hover to see current wind gust speed)